Weather History for KLWV - October, 2012

Change the Weather History Date:

Wednesday, October 24, 2012

  Actual Average Record
Temperature  
Mean Temperature 68 °F 55 °F  
Max Temperature 80 °F 66 °F 81 °F (2000)
Min Temperature 55 °F 44 °F 30 °F (2006)
Degree Days  
Heating Degree Days 0 10  
Month to date heating degree days 207 176  
Since 1 July heating degree days 272 215  
Cooling Degree Days 3 0  
Month to date cooling degree days 15 31  
Year to date cooling degree days 1707 1385  
Growing Degree Days 18 (Base 50)    
Moisture  
Dew Point 56 °F    
Average Humidity 67    
Maximum Humidity 86    
Minimum Humidity 48    
Precipitation  
Precipitation 0.00 in 0.14 in 1.19 in (1976)
Month to date precipitation 2.90 3.27  
Year to date precipitation 26.57 35.81  
Sea Level Pressure  
Sea Level Pressure 30.01 in    
Wind  
Wind Speed 10 mph (South)    
Max Wind Speed 18 mph    
Max Gust Speed 23 mph    
Visibility 9 miles    
Events      
T = Trace of Precipitation, MM = Missing Value Source: NWS Daily Summary

Daily Weather History Graph

Daily Weather History Graph

Search for Another Location

Airport or City:

Trip Planner

Search our weather history database for the weather conditions in past years. The results will help you decide how hot, cold, wet, or windy it might be!

Date:

Astronomy

Oct. 24, 2012 Rise Set
Actual Time 7:09 AM CDT 5:59 PM CDT
Civil Twilight 6:42 AM CDT 6:26 PM CDT
Nautical Twilight 6:11 AM CDT 6:57 PM CDT
Astronomical Twilight 5:40 AM CDT 7:28 PM CDT
Moon 3:12 PM CDT (10/24) 2:07 AM CDT (10/24)
Length of Visible Light 11h 44m
Length of Day
10h 49m
Waxing Gibbous, 76% of the Moon is Illuminated
Oct 24
Waxing Gibbous
Oct 29
Full
Nov 6
Last Quarter
Nov 13
New
Nov 20
First Quarter

Hourly Weather History & Observations

Time (CDT) Temp. Heat Index Dew Point Humidity Pressure Visibility Wind Dir Wind Speed Gust Speed Precip Events Conditions
12:53 AM 59.0 °F - 53.1 °F 81% 30.01 in 10.0 mi SSE 5.8 mph - N/A   Clear
1:53 AM 57.9 °F - 53.1 °F 84% 30.01 in 10.0 mi SSE 4.6 mph - N/A   Clear
2:53 AM 57.9 °F - 52.0 °F 81% 30.01 in 10.0 mi South 5.8 mph - N/A   Clear
3:53 AM 57.9 °F - 52.0 °F 81% 30.02 in 10.0 mi South 5.8 mph - N/A   Clear
4:53 AM 55.0 °F - 51.1 °F 86% 30.04 in 9.0 mi SSE 6.9 mph - N/A   Clear
5:53 AM 57.0 °F - 52.0 °F 83% 30.04 in 9.0 mi SSE 9.2 mph - N/A   Clear
6:53 AM 59.0 °F - 53.1 °F 81% 30.05 in 9.0 mi SSE 10.4 mph - N/A   Overcast
7:53 AM 60.1 °F - 54.0 °F 80% 30.06 in 8.0 mi South 10.4 mph - N/A   Overcast
8:53 AM 63.0 °F - 55.0 °F 75% 30.06 in 8.0 mi South 9.2 mph - N/A   Mostly Cloudy
9:53 AM 66.9 °F - 57.0 °F 70% 30.06 in 8.0 mi South 11.5 mph - N/A   Partly Cloudy
10:53 AM 72.0 °F - 60.1 °F 66% 30.06 in 9.0 mi SSW 11.5 mph - N/A   Partly Cloudy
11:53 AM 75.0 °F - 61.0 °F 62% 30.04 in 9.0 mi SSW 16.1 mph 23.0 mph N/A   Clear
12:53 PM 77.0 °F - 62.1 °F 60% 30.02 in 9.0 mi SSW 12.7 mph 20.7 mph N/A   Clear
1:53 PM 79.0 °F - 62.1 °F 56% 29.99 in 8.0 mi SW 17.3 mph 23.0 mph N/A   Clear
2:53 PM 80.1 °F 81.1 °F 61.0 °F 52% 29.98 in 9.0 mi South 15.0 mph 19.6 mph N/A   Clear
4:53 PM 78.1 °F - 57.9 °F 50% 29.97 in 10.0 mi South 16.1 mph - N/A   Clear
5:53 PM 73.0 °F - 57.9 °F 59% 29.97 in 8.0 mi South 8.1 mph - N/A   Clear
6:53 PM 66.9 °F - 57.0 °F 70% 29.98 in 9.0 mi South 8.1 mph - N/A   Clear
7:53 PM 63.0 °F - 55.9 °F 78% 29.99 in 9.0 mi SSE 8.1 mph - N/A   Clear
8:53 PM 62.1 °F - 55.9 °F 80% 29.99 in 9.0 mi South 5.8 mph - N/A   Clear
9:53 PM 61.0 °F - 55.0 °F 81% 29.98 in 9.0 mi South 5.8 mph - N/A   Clear
10:53 PM 61.0 °F - 54.0 °F 78% 29.98 in 9.0 mi South 5.8 mph - N/A   Clear
11:53 PM 60.1 °F - 54.0 °F 80% 29.97 in 9.0 mi SSE 4.6 mph - N/A   Clear